World > North America > United States > Iowa

Shenandoah, Iowa Regional Weather

Lat: 40.76N, Lon: 95.37W
Wx Zone: IAZ091Web Search

Pass this page to a friend. Tell them to point their camera at the QR Code near the bottom of this page.

Feedback
Shenandoah Weather Map
UTC Time: 3/2/2021, 22:37
Your Time:

Shenandoah, IA Regional Weather

Expires:202103022300;;378358
ASUS43 KDMX 022206
RWRIA 

WEATHER ROUNDUP FOR IOWA
NATIONAL WEATHER SERVICE DES MOINES IA
400 PM CST TUE MAR 02 2021

NOTE: "FAIR" INDICATES FEW OR NO CLOUDS BELOW 12,000 FEET WITH NO
SIGNIFICANT WEATHER AND/OR OBSTRUCTIONS TO VISIBILITY.

* - THESE STATIONS ARE NOT NWS STATIONS...THUS NOT UNDER NWS
QUALITY CONTROL.  THEY ALSO DO NOT REPORT WEATHER SUCH 
AS PRECIPITATION OR FOG.  


IAZ055>058-069>071-079>083-090>094-022300-
   SOUTHWEST IOWA
  
CITY           SKY/WX    TMP DP  RH WIND       PRES   REMARKS
ATLANTIC *     SUNNY     55  30  38 SW20G28   29.90F                  
AUDUBON *      SUNNY     54  34  47 S17G26    29.90F                  
CLARINDA *     SUNNY     61  23  23 SW18G28   29.97S                  
COUNCIL BLFS * SUNNY     57  27  30 SW20G29   29.89F                  
CRESTON *      SUNNY     55  28  35 SW18G25   29.95F                  
HARLAN  *      SUNNY     54  34  47 SW16      29.89F                  
LAMONI         SUNNY     57  25  29 SW20G30   29.98F                  
RED OAK *      SUNNY     59  30  33 SW18G26   29.93F                  
SHENANDOAH *   SUNNY     61  30  31 SW18G25   29.93F                  
$$
 

SKY/WX - Weather  TMP - Temperature  DP - Dew Point  RH - Relative Humidity
WIND - Wind Direction/Speed PRES - Barometric Pressure VSB - Visibility
WCI - Wind Chill Index E13G22 Wind - East Wind 13 mph/Gusts of 22 mph